This is the latest recevied weather packets stored in our database for station/object KF5VOI. If no packets are shown the sender has not sent any weather packets the latest 10 day(s).
| Time | Temp. | Humidity | Pressure | Rain* | Wind** | Luminosity | Snow |
|---|---|---|---|---|---|---|---|
| 1777377314 | 22.22° C | 99% | 1018.3 hPa | 0 mm | - | - | - |
| 1777375514 | 22.22° C | 99% | 1017.9 hPa | 0 mm | - | - | - |
| 1777373714 | 22.22° C | 99% | 1017.5 hPa | 0 mm | - | - | - |
| 1777371914 | 22.22° C | 99% | 1017.7 hPa | 0 mm | - | - | - |
| 1777370114 | 22.22° C | 99% | 1017.8 hPa | 0 mm | - | - | - |
| 1777368314 | 22.22° C | 99% | 1017.7 hPa | 0 mm | - | - | - |
| 1777366514 | 22.78° C | 99% | 1017.6 hPa | 0 mm | - | - | - |
| 1777364714 | 22.78° C | 99% | 1017.6 hPa | 0 mm | - | - | - |
| 1777362914 | 23.33° C | 99% | 1017.6 hPa | 0 mm | - | - | - |
| 1777361114 | 22.78° C | 99% | 1017.5 hPa | 0 mm | - | - | - |
| 1777359314 | 22.78° C | 99% | 1018.1 hPa | 0 mm | - | - | - |
| 1777357514 | 22.78° C | 99% | 1018.2 hPa | 0 mm | - | - | - |
| 1777355714 | 22.78° C | 99% | 1018.2 hPa | 0 mm | - | - | - |
| 1777353914 | 22.78° C | 99% | 1018.2 hPa | 0 mm | - | - | - |
| 1777352114 | 23.33° C | 99% | 1018.5 hPa | 0 mm | - | - | - |
| 1777350314 | 23.33° C | 98% | 1018.2 hPa | 0 mm | - | - | - |
| 1777348514 | 23.89° C | 96% | 1018 hPa | 0 mm | - | - | - |
| 1777346714 | 23.89° C | 94% | 1018.1 hPa | 0 mm | - | - | - |
| 1777344914 | 24.44° C | 93% | 1017.8 hPa | 0 mm | - | - | - |
| 1777343114 | 24.44° C | 91% | 1018.1 hPa | 0 mm | - | - | - |
| 1777341314 | 25° C | 88% | 1017.5 hPa | 0 mm | - | - | - |
| 1777339514 | 25.56° C | 85% | 1017.3 hPa | 0 mm | - | - | - |
| 1777337714 | 26.11° C | 82% | 1017.1 hPa | 0 mm | - | - | - |
| 1777335914 | 26.67° C | 78% | 1016.7 hPa | 0 mm | - | - | - |
| 1777334114 | 28.33° C | 74% | 1016.6 hPa | 0 mm | - | - | - |
* Rain latest hour (hover to see other rain measurements)
** Current wind speed in m/s (hover to see current wind gust speed)